Location: Township of Marena
(38.1747°N, 99.6798°W)
Time: 02:15:56
(UTC+00:00)

Meteor 2-15 - Pass Details

Date: 26 October 2020
Orbit: 935 x 956 km, 82.5° (Epoch: 27 November)

Event Time Altitude Azimuth Distance (km) Brightness Sun altitude
Rises 01:17:05 0° 182° (S) 3,619 7.5 -18.3°
Reaches altitude 10° 01:19:34 10° 181° (S) 2,677 6.8 -18.8°
Maximum altitude 01:25:41 80° 96° (E) 973 4.3 -20.0°
Drops below altitude 10° 01:31:51 10° 10° (N) 2,687 6.7 -21.2°
Sets 01:34:21 0° 9° (N) 3,634 7.4 -21.7°
